| time (UTC) | temp F | wind direction | speed MPH | gust MPH | rain 1hr in | rain 24hr in | rain mn in | humidity % | barometer mb |
| 20260903030350 | 62 | 342 | 0.0 | 0.0 | 0.00 | 0.00 | 0.00 | 48 | 1003.6 |
| 20260903025334 | 63 | 342 | 0.0 | 0.0 | 0.00 | 0.00 | 0.00 | 48 | 1003.5 |
| 20260903024351 | 63 | 343 | 0.0 | 0.0 | 0.00 | 0.00 | 0.00 | 47 | 1003.2 |
| 20260903022219 | 65 | 341 | 0.0 | 1.0 | 0.00 | 0.00 | 0.00 | 45 | 1002.8 |
| 20260903021226 | 65 | 342 | 0.0 | 0.0 | 0.00 | 0.00 | 0.00 | 45 | 1002.7 |
| 20260903020235 | 66 | 341 | 0.0 | 0.0 | 0.00 | 0.00 | 0.00 | 44 | 1002.3 |
| 20260903015236 | 67 | 340 | 0.0 | 0.0 | 0.00 | 0.00 | 0.00 | 43 | 1002.2 |
| 20260903014212 | 68 | 340 | 0.0 | 0.0 | 0.00 | 0.00 | 0.00 | 42 | 1002.0 |
| 20260903013234 | 69 | 339 | 0.0 | 4.0 | 0.00 | 0.00 | 0.00 | 41 | 1002.1 |
| 20260903012254 | 69 | 339 | 0.0 | 4.0 | 0.00 | 0.00 | 0.00 | 40 | 1002.1 |
| 20260903011306 | 70 | 339 | 0.0 | 7.0 | 0.00 | 0.00 | 0.00 | 38 | 1002.0 |
| 20260903010329 | 71 | 340 | 0.0 | 3.0 | 0.00 | 0.00 | 0.00 | 39 | 1001.9 |
| 20260903005259 | 72 | 340 | 0.0 | 7.0 | 0.00 | 0.00 | 0.00 | 36 | 1001.6 |
| 20260903004307 | 73 | 340 | 0.0 | 2.0 | 0.00 | 0.00 | 0.00 | 35 | 1001.6 |
| 20260903003315 | 74 | 341 | 0.0 | 3.0 | 0.00 | 0.00 | 0.00 | 35 | 1001.7 |
| 20260903002326 | 75 | 340 | 1.0 | 10.0 | 0.00 | 0.00 | 0.00 | 34 | 1001.4 |
| 20260903001302 | 76 | 341 | 2.0 | 19.0 | 0.00 | 0.00 | 0.00 | 30 | 1001.2 |
| 20260902233926 | 74 | 338 | 0.0 | 4.0 | 0.00 | 0.00 | 0.00 | 30 | 999.9 |
| 20260902232911 | 76 | 338 | 0.0 | 4.0 | 0.00 | 0.00 | 0.00 | 29 | 999.8 |
| 20260902230649 | 79 | 14 | 3.0 | 16.0 | 0.00 | 0.00 | 0.00 | 23 | 999.6 |
| 20260902224523 | 85 | 68 | 5.0 | 14.0 | 0.00 | 0.00 | 0.00 | 20 | 999.2 |
| 20260902223531 | 85 | 7 | 6.0 | 21.0 | 0.00 | 0.00 | 0.00 | 20 | 999.0 |
| 20260902222547 | 85 | 57 | 5.0 | 21.0 | 0.00 | 0.00 | 0.00 | 20 | 998.9 |
| 20260902221549 | 84 | 348 | 5.0 | 16.0 | 0.00 | 0.00 | 0.00 | 19 | 999.0 |
| 20260902215423 | 87 | 107 | 5.0 | 14.0 | 0.00 | 0.00 | 0.00 | 18 | 998.9 |
| 20260902214349 | 86 | 120 | 6.0 | 13.0 | 0.00 | 0.00 | 0.00 | 22 | 998.8 |
| 20260902213346 | 86 | 86 | 2.0 | 9.0 | 0.00 | 0.00 | 0.00 | 26 | 999.1 |
| 20260902212405 | 85 | 112 | 4.0 | 22.0 | 0.00 | 0.00 | 0.00 | 27 | 999.1 |
| 20260902211400 | 84 | 59 | 4.0 | 15.0 | 0.00 | 0.00 | 0.00 | 26 | 999.3 |
| 20260902210341 | 82 | 11 | 2.0 | 8.0 | 0.00 | 0.00 | 0.00 | 22 | 999.5 |
| 20260902205343 | 81 | 337 | 6.0 | 22.0 | 0.00 | 0.00 | 0.00 | 23 | 999.7 |
| 20260902204400 | 83 | 345 | 5.0 | 15.0 | 0.00 | 0.00 | 0.00 | 26 | 1000.0 |
| 20260902203418 | 85 | 93 | 4.0 | 14.0 | 0.00 | 0.00 | 0.00 | 26 | 999.9 |
| 20260902201306 | 85 | 92 | 3.0 | 14.0 | 0.00 | 0.00 | 0.00 | 29 | 1000.0 |
| 20260902195118 | 85 | 161 | 5.0 | 12.0 | 0.00 | 0.00 | 0.00 | 29 | 1000.3 |
| 20260902194049 | 85 | 177 | 3.0 | 12.0 | 0.00 | 0.00 | 0.00 | 29 | 1000.4 |
| 20260902193031 | 84 | 183 | 3.0 | 9.0 | 0.00 | 0.00 | 0.00 | 30 | 1000.5 |
| 20260902192017 | 83 | 185 | 3.0 | 9.0 | 0.00 | 0.00 | 0.00 | 28 | 1000.6 |
| 20260902191006 | 80 | 193 | 0.0 | 5.0 | 0.00 | 0.00 | 0.00 | 36 | 1000.6 |
| 20260902190021 | 80 | 191 | 0.0 | 3.0 | 0.00 | 0.00 | 0.00 | 40 | 1000.8 |
| 20260902184951 | 80 | 185 | 0.0 | 0.0 | 0.00 | 0.00 | 0.00 | 41 | 1001.1 |
| 20260902182829 | 79 | 323 | 0.0 | 0.0 | 0.00 | 0.00 | 0.00 | 35 | 1001.4 |
| 20260902175508 | 79 | 179 | 0.0 | 4.0 | 0.00 | 0.00 | 0.00 | 39 | 1001.9 |
| 20260902174528 | 78 | 178 | 1.0 | 5.0 | 0.00 | 0.00 | 0.00 | 36 | 1001.9 |
| 20260902172415 | 77 | 193 | 0.0 | 3.0 | 0.00 | 0.00 | 0.00 | 40 | 1002.0 |
| 20260902171415 | 75 | 184 | 0.0 | 1.0 | 0.00 | 0.00 | 0.00 | 41 | 1002.2 |
| 20260902170353 | 73 | 183 | 0.0 | 1.0 | 0.00 | 0.00 | 0.00 | 45 | 1002.3 |
| 20260902165353 | 72 | 108 | 0.0 | 7.0 | 0.00 | 0.00 | 0.00 | 50 | 1002.5 |
| 20260902164336 | 71 | 4 | 0.0 | 1.0 | 0.00 | 0.00 | 0.00 | 50 | 1002.5 |
| 20260902163303 | 70 | 61 | 0.0 | 1.0 | 0.00 | 0.00 | 0.00 | 54 | 1002.7 |
| 20260902162306 | 69 | 112 | 0.0 | 3.0 | 0.00 | 0.00 | 0.00 | 56 | 1002.9 |
| 20260902161319 | 68 | 45 | 0.0 | 0.0 | 0.00 | 0.00 | 0.00 | 55 | 1002.9 |
| 20260902160339 | 67 | 359 | 0.0 | 0.0 | 0.00 | 0.00 | 0.00 | 62 | 1003.1 |
| 20260902152006 | 61 | 191 | 2.0 | 5.0 | 0.00 | 0.00 | 0.00 | 68 | 1003.6 |
| 20260902151007 | 59 | 192 | 2.0 | 5.0 | 0.00 | 0.00 | 0.00 | 72 | 1003.7 |
| 20260902144808 | 58 | 193 | 0.0 | 1.0 | 0.00 | 0.00 | 0.00 | 74 | 1004.2 |
| 20260902143830 | 57 | 193 | 0.0 | 3.0 | 0.00 | 0.00 | 0.00 | 75 | 1004.3 |
| 20260902142835 | 57 | 193 | 0.0 | 0.0 | 0.00 | 0.00 | 0.00 | 74 | 1004.3 |
| 20260902140758 | 56 | 193 | 1.0 | 4.0 | 0.00 | 0.00 | 0.00 | 73 | 1004.2 |
| 20260902135803 | 55 | 193 | 0.0 | 0.0 | 0.00 | 0.00 | 0.00 | 76 | 1004.1 |
| 20260902134752 | 53 | 193 | 0.0 | 2.0 | 0.00 | 0.00 | 0.00 | 78 | 1004.1 |
| 20260902133753 | 52 | 193 | 0.0 | 0.0 | 0.00 | 0.00 | 0.00 | 79 | 1004.3 |
| 20260902132744 | 52 | 193 | 0.0 | 2.0 | 0.00 | 0.00 | 0.00 | 80 | 1004.3 |
| 20260902131759 | 51 | 5 | 0.0 | 0.0 | 0.00 | 0.00 | 0.00 | 80 | 1004.2 |
| 20260902130735 | 51 | 14 | 0.0 | 0.0 | 0.00 | 0.00 | 0.00 | 80 | 1004.4 |
| 20260902125741 | 50 | 14 | 0.0 | 0.0 | 0.00 | 0.00 | 0.00 | 80 | 1004.5 |
| 20260902124746 | 50 | 18 | 0.0 | 0.0 | 0.00 | 0.00 | 0.00 | 80 | 1004.6 |
| 20260902123740 | 50 | 20 | 0.0 | 0.0 | 0.00 | 0.00 | 0.00 | 80 | 1004.7 |
| 20260902122747 | 50 | 18 | 0.0 | 0.0 | 0.00 | 0.00 | 0.00 | 80 | 1004.6 |
| 20260902121731 | 50 | 22 | 0.0 | 0.0 | 0.00 | 0.00 | 0.00 | 80 | 1004.5 |
| 20260902120755 | 50 | 20 | 0.0 | 0.0 | 0.00 | 0.00 | 0.00 | 81 | 1004.7 |
| 20260902115814 | 50 | 20 | 0.0 | 3.0 | 0.00 | 0.00 | 0.00 | 81 | 1005.0 |
| 20260902114813 | 50 | 21 | 0.0 | 0.0 | 0.00 | 0.00 | 0.00 | 81 | 1004.9 |
| 20260902113755 | 50 | 18 | 0.0 | 2.0 | 0.00 | 0.00 | 0.00 | 80 | 1005.1 |
| 20260902112728 | 50 | 22 | 0.0 | 0.0 | 0.00 | 0.00 | 0.00 | 80 | 1005.1 |
| 20260902111733 | 51 | 15 | 0.0 | 0.0 | 0.00 | 0.00 | 0.00 | 79 | 1005.2 |
| 20260902110739 | 51 | 18 | 0.0 | 0.0 | 0.00 | 0.00 | 0.00 | 79 | 1005.3 |
| 20260902105734 | 51 | 11 | 0.0 | 0.0 | 0.00 | 0.00 | 0.00 | 78 | 1005.4 |
| 20260902104738 | 51 | 5 | 0.0 | 2.0 | 0.00 | 0.00 | 0.00 | 77 | 1005.4 |
| 20260902101438 | 52 | 6 | 0.0 | 0.0 | 0.00 | 0.00 | 0.00 | 78 | 1005.2 |
| 20260902100447 | 52 | 4 | 0.0 | 0.0 | 0.00 | 0.00 | 0.00 | 78 | 1005.3 |
| 20260902093246 | 53 | 0 | 0.0 | 0.0 | 0.00 | 0.00 | 0.00 | 75 | 1004.9 |
| 20260902092241 | 53 | 356 | 0.0 | 0.0 | 0.00 | 0.00 | 0.00 | 75 | 1004.8 |
| 20260902085048 | 55 | 353 | 0.0 | 2.0 | 0.00 | 0.00 | 0.00 | 72 | 1004.6 |
| 20260902084052 | 55 | 355 | 0.0 | 2.0 | 0.00 | 0.00 | 0.00 | 71 | 1004.7 |
| 20260902083112 | 55 | 353 | 0.0 | 0.0 | 0.00 | 0.00 | 0.00 | 72 | 1004.6 |
| 20260902082103 | 56 | 354 | 0.0 | 0.0 | 0.00 | 0.00 | 0.00 | 71 | 1004.5 |
| 20260902081123 | 56 | 351 | 0.0 | 0.0 | 0.00 | 0.00 | 0.00 | 71 | 1004.6 |
| 20260902075033 | 57 | 351 | 0.0 | 0.0 | 0.00 | 0.00 | 0.00 | 69 | 1004.8 |
| 20260902074033 | 57 | 351 | 0.0 | 0.0 | 0.00 | 0.00 | 0.00 | 69 | 1004.9 |
| 20260902073031 | 58 | 352 | 0.0 | 0.0 | 0.00 | 0.00 | 0.00 | 68 | 1004.9 |
| 20260902070912 | 59 | 346 | 0.0 | 0.0 | 0.00 | 0.00 | 0.00 | 65 | 1004.8 |
| 20260902065931 | 60 | 345 | 0.0 | 0.0 | 0.00 | 0.00 | 0.00 | 64 | 1004.8 |
| 20260902064914 | 60 | 344 | 0.0 | 0.0 | 0.00 | 0.00 | 0.00 | 64 | 1004.7 |
| 20260902063840 | 61 | 342 | 0.0 | 0.0 | 0.00 | 0.00 | 0.00 | 62 | 1004.7 |
| 20260902062841 | 62 | 341 | 0.0 | 0.0 | 0.00 | 0.00 | 0.00 | 61 | 1004.7 |
| 20260902061829 | 62 | 340 | 0.0 | 0.0 | 0.00 | 0.00 | 0.00 | 59 | 1004.9 |
| 20260902060842 | 63 | 340 | 0.0 | 0.0 | 0.00 | 0.00 | 0.00 | 57 | 1005.0 |
| 20260902055855 | 64 | 340 | 0.0 | 0.0 | 0.00 | 0.00 | 0.00 | 57 | 1005.1 |
| 20260902053750 | 65 | 340 | 0.0 | 0.0 | 0.00 | 0.00 | 0.00 | 54 | 1005.2 |
| 20260902052737 | 66 | 339 | 0.0 | 0.0 | 0.00 | 0.00 | 0.00 | 52 | 1005.2 |
| 20260902051750 | 67 | 339 | 0.0 | 0.0 | 0.00 | 0.00 | 0.00 | 49 | 1005.2 |
| 20260902050806 | 68 | 340 | 0.0 | 0.0 | 0.00 | 0.00 | 0.00 | 48 | 1005.3 |
| 20260902045757 | 68 | 339 | 0.0 | 2.0 | 0.00 | 0.00 | 0.00 | 45 | 1005.4 |
| 20260902044807 | 68 | 340 | 1.0 | 4.0 | 0.00 | 0.00 | 0.00 | 45 | 1005.4 |
| 20260902043754 | 68 | 339 | 1.0 | 4.0 | 0.00 | 0.00 | 0.00 | 45 | 1005.6 |
| 20260902042802 | 69 | 339 | 1.0 | 7.0 | 0.00 | 0.00 | 0.00 | 45 | 1005.6 |
| 20260902041759 | 68 | 340 | 1.0 | 7.0 | 0.00 | 0.00 | 0.00 | 45 | 1005.6 |
| 20260902040739 | 68 | 339 | 0.0 | 0.0 | 0.00 | 0.00 | 0.00 | 46 | 1005.7 |
| 20260902035755 | 68 | 339 | 0.0 | 3.0 | 0.00 | 0.00 | 0.00 | 46 | 1005.6 |
| 20260902034728 | 69 | 339 | 0.0 | 4.0 | 0.00 | 0.00 | 0.00 | 45 | 1005.6 |
| 20260902033727 | 69 | 339 | 1.0 | 4.0 | 0.00 | 0.00 | 0.00 | 45 | 1005.5 |
| 20260902032656 | 69 | 339 | 0.0 | 0.0 | 0.00 | 0.00 | 0.00 | 46 | 1005.6 |
| 20260902031644 | 69 | 339 | 0.0 | 4.0 | 0.00 | 0.00 | 0.00 | 44 | 1005.5 |